SCP
0 0 0 0 0 0 0 0 0 0 0 0 0 0 0 0 0 0 0 0 0 0
0 0 0 0 0 0 0 0 0 0 0 0 0 0 0 0 0 0 0 0 0 0
0 0 0 0 0 0 0 0 0 0 0 0 0 0 0 0 0 0 0 0 0 0
0 0 0 0 0 0 0 0 0 0 0 0 0 0 0 0 0 0 0 0 0 0
0 0 0 0 0 0 0 0 0 0 0 0 0 0 0 0 0 0 0 0 0 0
0 0 0 0 0 0 0 0 0 0 0 -0 0 0 -0 0 0 0 0 0 0 0
0 0 0 0 0 0 0 0 0 0 0 0 0 0 0 0 0 0 0 0 0 0
0 0 0 -0 -0 0 0 0 0 0 0 0 0 0 0 0 0 0 0 0 0 0
0 0 0 -0 -0 -0 0 0 0 0 0 -0 -0 -0 -0 0 0 0 0 0 0 0
0 0 -0 0 0 0 -0 0 -0 -0 -0 -0 0 0 0 0 0 -0 0 0 0 0
0 0 0 0 0 0 -0 -0 -0 0 -0 -0 -0 -0 -0 0 0 0 0 0 0 0
0 0 0 0 0 0 -0 -0 0 0 0 0 0 -0 -0 -0 0 0 0 0 0 0
0 0 0 0 0 0 0 0 0 0 0 0 0 -0 -0 -0 0 -0 0 0 0 0
0 0 0 0 0 0 0 0 0 0 0 0 0 0 -0 -0 0 0 0 -0 0 0
Wind_Speed_500mb
64 58 57 54 51 51 50 50 46 45 45 44 43 48 50 58 69 73 71 74 79 84
55 52 51 48 47 47 47 45 45 46 48 45 47 54 57 68 74 77 74 76 82 78
51 45 44 44 43 44 45 45 46 46 45 44 50 55 62 63 74 71 73 71 71 81
43 42 40 39 40 41 41 40 41 42 44 49 51 56 56 53 52 65 72 71 67 76
39 38 35 36 38 38 38 38 39 41 41 44 48 46 47 45 50 57 59 67 65 61
36 34 31 33 35 33 32 33 33 33 34 34 35 40 36 34 43 39 53 57 58 51
33 31 30 31 31 29 27 27 24 24 25 28 28 24 28 28 30 32 32 40 51 57
30 29 27 26 27 27 24 24 24 23 24 24 21 22 25 22 19 26 24 33 36 43
27 26 26 26 26 26 27 26 25 22 21 19 16 20 24 19 16 8 10 16 25 28
29 26 25 25 23 22 24 25 21 19 15 14 8 15 7 5 6 11 10 11 12 13
30 29 27 25 24 24 26 27 25 23 21 18 14 6 2 3 10 11 10 8 6 7
31 29 29 28 27 24 23 27 30 31 30 26 19 10 10 20 28 33 34 32 26 18
27 27 27 27 27 26 27 29 32 35 36 34 28 21 25 34 41 48 51 48 47 43
13 14 17 20 21 24 26 29 34 38 37 36 39 36 37 39 45 47 47 49 49 44
Wind_Direction_500mb
313 309 307 305 301 294 291 292 287 286 285 284 270 268 272 273 271 263 255 249 240 238
318 311 308 305 300 297 295 297 296 289 287 285 274 270 276 265 269 259 256 248 239 238
318 316 311 306 305 302 302 301 297 292 292 289 279 273 276 272 268 252 248 242 243 236
323 318 311 308 308 309 307 305 301 297 293 285 277 279 280 273 262 246 243 242 245 239
326 318 314 315 314 313 310 308 303 300 295 286 285 280 275 273 259 248 246 235 233 236
332 326 323 318 317 313 313 309 305 306 302 290 290 272 270 267 250 237 230 233 231 225
337 337 338 330 326 321 317 314 313 313 311 303 286 279 278 266 252 242 238 223 240 238
344 348 344 340 336 330 324 319 318 317 316 317 309 297 287 271 273 244 235 226 225 237
357 357 355 353 349 341 336 335 329 325 320 314 314 300 292 257 259 253 239 232 230 238
10 11 11 11 10 9 8 0 356 353 343 338 333 293 302 224 270 288 259 240 223 227
22 24 25 25 27 29 32 30 32 35 33 27 28 9 348 205 187 178 148 143 168 216
30 30 32 35 35 37 47 54 59 61 57 48 43 55 111 130 126 120 106 92 86 97
34 38 41 40 41 47 58 65 71 74 74 71 70 88 112 113 108 103 98 93 86 77
7 11 33 44 48 50 53 59 64 69 71 79 80 84 87 89 94 91 95 94 90 89
Wind_Speed_850mb
64 58 57 54 51 51 50 50 46 45 45 44 43 48 50 58 69 73 71 74 79 84
55 52 51 48 47 47 47 45 45 46 48 45 47 54 57 68 74 77 74 76 82 78
51 45 44 44 43 44 45 45 46 46 45 44 50 55 62 63 74 71 73 71 71 81
43 42 40 39 40 41 41 40 41 42 44 49 51 56 56 53 52 65 72 71 67 76
39 38 35 36 38 38 38 38 39 41 41 44 48 46 47 45 50 57 59 67 65 61
36 34 31 33 35 33 32 33 33 33 34 34 35 40 36 34 43 39 53 57 58 51
33 31 30 31 31 29 27 27 24 24 25 28 28 24 28 28 30 32 32 40 51 57
30 29 27 26 27 27 24 24 24 23 24 24 21 22 25 22 19 26 24 33 36 43
27 26 26 26 26 26 27 26 25 22 21 19 16 20 24 19 16 8 10 16 25 28
29 26 25 25 23 22 24 25 21 19 15 14 8 15 7 5 6 11 10 11 12 13
30 29 27 25 24 24 26 27 25 23 21 18 14 6 2 3 10 11 10 8 6 7
31 29 29 28 27 24 23 27 30 31 30 26 19 10 10 20 28 33 34 32 26 18
27 27 27 27 27 26 27 29 32 35 36 34 28 21 25 34 41 48 51 48 47 43
13 14 17 20 21 24 26 29 34 38 37 36 39 36 37 39 45 47 47 49 49 44
Wind_Direction_850mb
313 309 307 305 301 294 291 292 287 286 285 284 270 268 272 273 271 263 255 249 240 238
318 311 308 305 300 297 295 297 296 289 287 285 274 270 276 265 269 259 256 248 239 238
318 316 311 306 305 302 302 301 297 292 292 289 279 273 276 272 268 252 248 242 243 236
323 318 311 308 308 309 307 305 301 297 293 285 277 279 280 273 262 246 243 242 245 239
326 318 314 315 314 313 310 308 303 300 295 286 285 280 275 273 259 248 246 235 233 236
332 326 323 318 317 313 313 309 305 306 302 290 290 272 270 267 250 237 230 233 231 225
337 337 338 330 326 321 317 314 313 313 311 303 286 279 278 266 252 242 238 223 240 238
344 348 344 340 336 330 324 319 318 317 316 317 309 297 287 271 273 244 235 226 225 237
357 357 355 353 349 341 336 335 329 325 320 314 314 300 292 257 259 253 239 232 230 238
10 11 11 11 10 9 8 0 356 353 343 338 333 293 302 224 270 288 259 240 223 227
22 24 25 25 27 29 32 30 32 35 33 27 28 9 348 205 187 178 148 143 168 216
30 30 32 35 35 37 47 54 59 61 57 48 43 55 111 130 126 120 106 92 86 97
34 38 41 40 41 47 58 65 71 74 74 71 70 88 112 113 108 103 98 93 86 77
7 11 33 44 48 50 53 59 64 69 71 79 80 84 87 89 94 91 95 94 90 89